CEB344 RPLL-RCKH

Flight info

Callsign CEB344
Flight time N/A
Altitude 36000
Route CAB2R CAB B462 LAO/N0461F350 M646 POTIB POTIB1A
Aircraft A21N/M-SDE3FGHIRWY/LB1

Departure

Time 2026-05-06 14:15
Airport Ninoy Aquino International Airport (RPLL)

Arrival

Time N/A
Airport Kaohsiung International Airport (RCKH)
Time Latitude Longitude Altitude Speed Heading
2026-05-06 13:48 14.51774 121.01569 82 ft 0 kts 224°
2026-05-06 13:58 14.51777 121.01572 82 ft 2 kts 224°
2026-05-06 13:58 14.51788 121.01583 82 ft 2 kts 224°
2026-05-06 13:58 14.51798 121.01594 82 ft 2 kts 224°
2026-05-06 13:59 14.51809 121.01605 82 ft 2 kts 224°
2026-05-06 13:59 14.51812 121.01608 82 ft 0 kts 224°
2026-05-06 14:00 14.51841 121.01627 82 ft 0 kts 134°
2026-05-06 14:05 14.51818 121.01650 82 ft 9 kts 136°
2026-05-06 14:05 14.51769 121.01701 82 ft 10 kts 134°
2026-05-06 14:05 14.51719 121.01753 82 ft 10 kts 134°
2026-05-06 14:06 14.51656 121.01784 82 ft 10 kts 181°
2026-05-06 14:06 14.51633 121.01779 82 ft 10 kts 204°
2026-05-06 14:07 14.51365 121.01685 82 ft 11 kts 135°
2026-05-06 14:07 14.51308 121.01743 82 ft 11 kts 134°
2026-05-06 14:07 14.51250 121.01804 82 ft 11 kts 135°
2026-05-06 14:08 14.51190 121.01865 82 ft 12 kts 135°
2026-05-06 14:08 14.51127 121.01930 82 ft 12 kts 134°
2026-05-06 14:08 14.51075 121.01984 82 ft 7 kts 140°
2026-05-06 14:08 14.51032 121.01970 82 ft 7 kts 235°
2026-05-06 14:09 14.50996 121.01906 82 ft 15 kts 241°
2026-05-06 14:09 14.50925 121.01779 82 ft 23 kts 240°
2026-05-06 14:09 14.50846 121.01640 82 ft 22 kts 239°
2026-05-06 14:09 14.50772 121.01504 82 ft 21 kts 241°
2026-05-06 14:10 14.50700 121.01375 82 ft 20 kts 239°
2026-05-06 14:10 14.50630 121.01249 82 ft 19 kts 240°
2026-05-06 14:10 14.50563 121.01127 82 ft 19 kts 240°
2026-05-06 14:10 14.50497 121.01009 82 ft 18 kts 240°
2026-05-06 14:11 14.50433 121.00894 82 ft 18 kts 239°
2026-05-06 14:11 14.50371 121.00783 82 ft 17 kts 240°
2026-05-06 14:11 14.50310 121.00671 82 ft 17 kts 240°
2026-05-06 14:11 14.50250 121.00563 82 ft 17 kts 240°
2026-05-06 14:12 14.50190 121.00457 82 ft 17 kts 241°
2026-05-06 14:12 14.50131 121.00351 82 ft 16 kts 240°
2026-05-06 14:12 14.50073 121.00246 82 ft 16 kts 240°
2026-05-06 14:12 14.50016 121.00143 82 ft 16 kts 240°
2026-05-06 14:13 14.49958 121.00038 82 ft 16 kts 240°
2026-05-06 14:13 14.49897 120.99966 82 ft 13 kts 189°
2026-05-06 14:13 14.49817 121.00004 82 ft 12 kts 132°
2026-05-06 14:13 14.49818 121.00073 82 ft 1 kts 62°
2026-05-06 14:14 14.49830 121.00096 82 ft 23 kts 60°
2026-05-06 14:14 14.50043 121.00482 82 ft 98 kts 60°
2026-05-06 14:14 14.50494 121.01287 82 ft 159 kts 61°
2026-05-06 14:15 14.51110 121.02396 354 ft 185 kts 60°
2026-05-06 14:15 14.51750 121.03536 1036 ft 187 kts 60°
2026-05-06 14:15 14.52387 121.04681 1852 ft 182 kts 59°
2026-05-06 14:15 14.53016 121.05814 2421 ft 179 kts 59°
2026-05-06 14:16 14.53631 121.06920 2880 ft 180 kts 59°
2026-05-06 14:16 14.54255 121.08044 3300 ft 185 kts 59°
2026-05-06 14:16 14.54923 121.09246 3611 ft 197 kts 59°
2026-05-06 14:16 14.55638 121.10530 3894 ft 210 kts 59°
2026-05-06 14:17 14.56390 121.11882 4144 ft 225 kts 59°
2026-05-06 14:17 14.57215 121.13364 4350 ft 244 kts 59°
2026-05-06 14:17 14.58093 121.14943 4660 ft 260 kts 59°
2026-05-06 14:17 14.59070 121.16550 5130 ft 268 kts 49°
2026-05-06 14:18 14.60624 121.17594 5738 ft 271 kts 15°
2026-05-06 14:18 14.62526 121.17590 6382 ft 276 kts 349°
2026-05-06 14:18 14.64430 121.17124 6980 ft 279 kts 350°
2026-05-06 14:18 14.66335 121.16720 7580 ft 282 kts 351°
2026-05-06 14:19 14.68276 121.16345 8200 ft 284 kts 352°
2026-05-06 14:19 14.70256 121.15980 8811 ft 285 kts 353°
2026-05-06 14:19 14.72207 121.15629 9399 ft 287 kts 353°
2026-05-06 14:19 14.74189 121.15279 9938 ft 289 kts 353°
2026-05-06 14:20 14.76214 121.14929 10382 ft 295 kts 353°
2026-05-06 14:20 14.78306 121.14570 10613 ft 309 kts 353°
2026-05-06 14:20 14.80462 121.14199 10857 ft 321 kts 352°
2026-05-06 14:20 14.82720 121.13808 11272 ft 327 kts 352°
2026-05-06 14:21 14.84955 121.13421 11747 ft 329 kts 352°
2026-05-06 14:21 14.87241 121.13026 12209 ft 332 kts 352°
2026-05-06 14:21 14.89535 121.12630 12647 ft 335 kts 352°
2026-05-06 14:21 14.91842 121.12231 13063 ft 338 kts 352°
2026-05-06 14:22 14.94208 121.11820 13480 ft 341 kts 352°
2026-05-06 14:22 14.96551 121.11415 13897 ft 344 kts 352°
2026-05-06 14:22 14.98929 121.11003 14334 ft 346 kts 352°
2026-05-06 14:22 15.01324 121.10590 14758 ft 347 kts 352°
2026-05-06 14:23 15.03736 121.10172 15164 ft 349 kts 352°
2026-05-06 14:23 15.06151 121.09756 15563 ft 351 kts 351°
2026-05-06 14:23 15.08588 121.09335 15949 ft 353 kts 351°
2026-05-06 14:23 15.11021 121.08913 16319 ft 355 kts 351°
2026-05-06 14:24 15.11075 121.08903 16327 ft 355 kts 351°
2026-05-06 14:24 15.12872 121.08591 16600 ft 356 kts 351°
2026-05-06 14:24 15.15339 121.08164 16962 ft 358 kts 351°
2026-05-06 14:24 15.17831 121.07732 17330 ft 360 kts 351°
2026-05-06 14:25 15.20301 121.07304 17691 ft 361 kts 351°
2026-05-06 14:25 15.22784 121.06873 18034 ft 363 kts 351°
2026-05-06 14:25 15.25280 121.06441 18366 ft 365 kts 351°
2026-05-06 14:25 15.27802 121.06005 18697 ft 367 kts 351°
2026-05-06 14:26 15.30371 121.05559 19024 ft 370 kts 351°
2026-05-06 14:26 15.32917 121.05116 19350 ft 372 kts 351°
2026-05-06 14:26 15.35474 121.04672 19685 ft 373 kts 351°
2026-05-06 14:26 15.38040 121.04225 20006 ft 375 kts 351°
2026-05-06 14:27 15.40628 121.03775 20329 ft 377 kts 351°
2026-05-06 14:27 15.43213 121.03326 20650 ft 378 kts 351°
2026-05-06 14:27 15.45807 121.02876 20969 ft 379 kts 351°
2026-05-06 14:27 15.48447 121.02416 21293 ft 381 kts 351°
2026-05-06 14:28 15.51066 121.01949 21614 ft 382 kts 351°
2026-05-06 14:28 15.53663 121.01480 21924 ft 383 kts 350°
2026-05-06 14:28 15.56310 121.01000 22227 ft 385 kts 350°
2026-05-06 14:28 15.58964 121.00519 22521 ft 386 kts 350°
2026-05-06 14:29 15.61635 121.00034 22805 ft 388 kts 350°
2026-05-06 14:29 15.64313 120.99548 23077 ft 391 kts 350°
2026-05-06 14:29 15.66978 120.99064 23345 ft 393 kts 350°
2026-05-06 14:29 15.69684 120.98572 23613 ft 395 kts 350°
2026-05-06 14:30 15.72415 120.98075 23888 ft 397 kts 350°
2026-05-06 14:30 15.75158 120.97576 24157 ft 399 kts 350°
2026-05-06 14:30 15.77872 120.97082 24423 ft 400 kts 350°
2026-05-06 14:30 15.80644 120.96577 24691 ft 402 kts 350°
2026-05-06 14:31 15.83394 120.96076 24954 ft 404 kts 349°
2026-05-06 14:31 15.86184 120.95568 25219 ft 405 kts 349°
2026-05-06 14:31 15.88991 120.95058 25481 ft 407 kts 349°
2026-05-06 14:31 15.91794 120.94547 25739 ft 409 kts 349°
2026-05-06 14:32 15.94600 120.94035 25988 ft 411 kts 349°
2026-05-06 14:32 15.97415 120.93523 26227 ft 412 kts 349°
2026-05-06 14:32 16.00271 120.93002 26465 ft 414 kts 349°
2026-05-06 14:32 16.03098 120.92487 26701 ft 416 kts 349°
2026-05-06 14:33 16.05964 120.91965 26934 ft 418 kts 349°
2026-05-06 14:33 16.08877 120.91434 27177 ft 419 kts 349°
2026-05-06 14:33 16.11783 120.90902 27422 ft 421 kts 349°
2026-05-06 14:33 16.14678 120.90373 27666 ft 422 kts 349°
2026-05-06 14:34 16.17586 120.89841 27914 ft 423 kts 349°
2026-05-06 14:34 16.20502 120.89308 28156 ft 424 kts 349°
2026-05-06 14:34 16.23427 120.88774 28389 ft 426 kts 349°
2026-05-06 14:34 16.26345 120.88241 28620 ft 427 kts 349°
2026-05-06 14:35 16.29285 120.87702 28851 ft 429 kts 349°
2026-05-06 14:35 16.31244 120.87344 29007 ft 430 kts 349°
2026-05-06 14:35 16.32231 120.87163 29086 ft 430 kts 349°
2026-05-06 14:36 16.44112 120.84990 30017 ft 435 kts 349°
2026-05-06 14:36 16.47105 120.84441 30263 ft 435 kts 349°
2026-05-06 14:36 16.50107 120.83890 30498 ft 436 kts 349°
2026-05-06 14:37 16.52089 120.83527 30648 ft 437 kts 349°
2026-05-06 14:37 16.56120 120.82789 30963 ft 438 kts 349°
2026-05-06 14:37 16.59113 120.82239 31192 ft 439 kts 349°
2026-05-06 14:37 16.62158 120.81679 31426 ft 440 kts 349°
2026-05-06 14:38 16.65160 120.81128 31649 ft 441 kts 349°
2026-05-06 14:38 16.68207 120.80569 31871 ft 441 kts 349°
2026-05-06 14:38 16.71207 120.80017 32084 ft 442 kts 349°
2026-05-06 14:38 16.74271 120.79455 32313 ft 443 kts 349°
2026-05-06 14:39 16.77344 120.78890 32548 ft 443 kts 349°
2026-05-06 14:39 16.80403 120.78328 32788 ft 444 kts 349°
2026-05-06 14:39 16.83451 120.77767 33093 ft 443 kts 349°
2026-05-06 14:39 16.86480 120.77211 33403 ft 441 kts 349°
2026-05-06 14:40 16.89471 120.76660 33655 ft 442 kts 349°
2026-05-06 14:40 16.92544 120.76094 33846 ft 443 kts 348°
2026-05-06 14:40 16.95555 120.75539 34018 ft 444 kts 348°
2026-05-06 14:40 16.98618 120.74973 34190 ft 446 kts 349°
2026-05-06 14:41 17.01701 120.74405 34364 ft 447 kts 348°
2026-05-06 14:41 17.04776 120.73837 34546 ft 448 kts 348°
2026-05-06 14:41 17.07861 120.73267 34727 ft 449 kts 349°
2026-05-06 14:41 17.10942 120.72697 34906 ft 450 kts 348°
2026-05-06 14:42 17.14003 120.72132 35069 ft 451 kts 348°
2026-05-06 14:42 17.17104 120.71559 35077 ft 451 kts 349°
2026-05-06 14:42 17.23339 120.70405 35065 ft 451 kts 348°
2026-05-06 14:43 17.29543 120.69260 35049 ft 450 kts 348°
2026-05-06 14:43 17.35727 120.68128 35034 ft 450 kts 348°
2026-05-06 14:44 17.41925 120.66988 35027 ft 451 kts 348°
2026-05-06 14:45 17.51244 120.65269 35005 ft 450 kts 348°
2026-05-06 14:45 17.57452 120.64121 35002 ft 450 kts 348°
2026-05-06 14:46 17.63645 120.62975 34995 ft 450 kts 348°
2026-05-06 14:46 17.69850 120.61829 34989 ft 449 kts 348°
2026-05-06 14:47 17.76026 120.60696 34984 ft 450 kts 348°
2026-05-06 14:47 17.82261 120.59545 34984 ft 450 kts 348°
2026-05-06 14:48 17.88427 120.58405 34977 ft 449 kts 348°
2026-05-06 14:48 17.94617 120.57257 34960 ft 448 kts 348°
2026-05-06 14:49 18.00765 120.56117 34954 ft 448 kts 348°
2026-05-06 14:49 18.06920 120.54972 34949 ft 448 kts 348°
2026-05-06 14:50 18.12993 120.53886 34949 ft 449 kts 351°
2026-05-06 14:50 18.19242 120.53343 34941 ft 450 kts 356°
2026-05-06 14:51 18.25508 120.53523 34943 ft 451 kts
2026-05-06 14:51 18.31779 120.54023 34945 ft 451 kts
2026-05-06 14:52 18.38059 120.54536 34944 ft 451 kts
2026-05-06 14:52 18.44319 120.55040 34948 ft 450 kts
2026-05-06 14:53 18.50585 120.55542 34949 ft 450 kts
2026-05-06 14:53 18.56838 120.56042 34950 ft 450 kts
2026-05-06 14:54 18.63098 120.56544 34946 ft 450 kts
2026-05-06 14:54 18.69344 120.57046 34939 ft 450 kts
2026-05-06 14:55 18.75591 120.57552 34928 ft 450 kts
2026-05-06 14:55 18.81837 120.58055 34919 ft 449 kts
2026-05-06 14:56 18.88098 120.58559 34911 ft 449 kts
2026-05-06 14:56 18.94383 120.59062 34908 ft 449 kts
2026-05-06 14:57 19.00622 120.59563 34910 ft 449 kts
2026-05-06 14:57 19.06849 120.60064 34907 ft 449 kts
2026-05-06 14:58 19.13129 120.60571 34910 ft 449 kts
2026-05-06 14:58 19.19331 120.61076 34910 ft 449 kts
2026-05-06 14:59 19.25576 120.61582 34913 ft 448 kts
2026-05-06 14:59 19.31821 120.62085 34913 ft 448 kts
2026-05-06 15:00 19.38030 120.62586 34913 ft 449 kts
2026-05-06 15:00 19.44265 120.63093 34913 ft 448 kts
2026-05-06 15:01 19.50526 120.63603 34918 ft 448 kts
2026-05-06 15:01 19.56791 120.64114 34923 ft 448 kts
2026-05-06 15:02 19.62973 120.64617 34933 ft 447 kts
2026-05-06 15:02 19.64011 120.64703 34935 ft 447 kts